Starlink 6032

operational
NORAD ID: 57371 Int'l Des: 2023-099 Owner: SPXS Country: US Constellation: starlink
LEOCIRCULAR

关于 Starlink 6032

正在加载描述...

实时位置

正在加载3D地球...

即将过境

高度历史

Altitude vs Time

uPlot chart will show altitude changes over time

两行轨道根数

1 57371U 23099AV 26061.29059788 -.00001617 00000-0 -10468-3 0 9998
2 57371 43.0035 276.1389 0001174 275.0179 85.0530 15.02534348145152
Epoch: Mar 2, 2026 • Age: 43 hours

当前状态

高度 564.5 km
速度 7.58 km/s
星下点 -23.86°S, 29.06°E
发射日期 Jul 16, 2023
运行时间 2.6 years
类型 internet

技术详情

分类 Payload
质量 305.00 kg
干质量 290.00 kg
总质量 305.00 kg
长度 0.20 m
直径 2.80 m
跨度 9.00 m
形状 Box + pan
制造商 SPXS
平台类型 Starlink
阶段状态 In Orbit
所有者/国家 SPXS/US

大型星座

Loading constellations...